{"data":{"norad_id":39189,"epoch":"2026-09-19T16:58:58.432800Z","epoch_age_seconds":82771,"freshness":"FRESH","line1":"1 39189U 13031B   26262.70762075 -.00000027  00000+0  00000+0 0  9998","line2":"2 39189   0.0404 355.9937 0004384 153.5361 210.4979  5.00115789241762","mean_motion":5.00115789,"eccentricity":0.0004384,"inclination_deg":0.0404,"raan_deg":355.9937,"arg_perigee_deg":153.5361,"mean_anomaly_deg":210.4979,"bstar":0,"rev_number":24176,"period_min":287.93332097739,"perigee_km":8059.552394718,"apogee_km":8072.216912904,"semimajor_km":14444.021653811,"source":"CELESTRAK","updated_at":"2026-09-20T09:00:35.643000Z"}}